Time,TemperatureF,DewpointF,PressureIn,WindDirection,WindDirectionDegrees,WindSpeedMPH,WindSpeedGustMPH,Humidity,HourlyPrecipIn,Conditions,Clouds,dailyrainin,SoftwareType,DateUTC
2013-01-27 00:02:00,25.6,14.7,30.32,ENE,68,0.2,2.2,63,0.00,,,0.00,WUHU216HW,2013-01-27 06:02:00,
2013-01-27 00:07:00,25.6,14.7,30.32,ENE,68,0.4,2.2,63,0.00,,,0.00,WUHU216HW,2013-01-27 06:07:00,
2013-01-27 00:12:00,25.7,14.9,30.32,ESE,113,2.5,2.5,63,0.00,,,0.00,WUHU216HW,2013-01-27 06:12:00,
2013-01-27 00:17:00,25.9,15.0,30.32,ESE,113,0.4,3.4,63,0.00,,,0.00,WUHU216HW,2013-01-27 06:17:00,
2013-01-27 00:22:00,26.1,15.1,30.32,ESE,113,0.9,3.4,63,0.00,,,0.00,WUHU216HW,2013-01-27 06:22:00,
2013-01-27 00:27:00,26.3,15.3,30.32,SSW,203,0.4,2.9,63,0.00,,,0.00,WUHU216HW,2013-01-27 06:27:00,
2013-01-27 00:32:00,26.3,15.3,30.32,ENE,68,0.0,1.8,63,0.00,,,0.00,WUHU216HW,2013-01-27 06:32:00,
2013-01-27 00:37:00,26.5,15.5,30.32,East,90,1.8,2.2,63,0.00,,,0.00,WUHU216HW,2013-01-27 06:37:00,
2013-01-27 00:42:00,26.5,15.5,30.32,ESE,113,0.7,2.2,63,0.00,,,0.00,WUHU216HW,2013-01-27 06:42:00,
2013-01-27 00:47:00,26.6,15.7,30.32,SE,135,0.4,2.2,63,0.00,,,0.00,WUHU216HW,2013-01-27 06:47:00,
2013-01-27 00:52:00,26.8,15.8,30.32,ENE,68,1.1,1.8,63,0.00,,,0.00,WUHU216HW,2013-01-27 06:52:00,
2013-01-27 00:57:00,26.6,15.3,30.32,East,90,1.3,1.8,62,0.00,,,0.00,WUHU216HW,2013-01-27 06:57:00,
2013-01-27 01:02:00,26.6,15.3,30.31,ENE,68,0.4,1.8,62,0.00,,,0.00,WUHU216HW,2013-01-27 07:02:00,
2013-01-27 01:07:00,26.6,15.3,30.31,ESE,113,1.3,2.0,62,0.00,,,0.00,WUHU216HW,2013-01-27 07:07:00,
2013-01-27 01:13:00,26.6,15.3,30.31,ENE,68,1.1,2.0,62,0.00,,,0.00,WUHU216HW,2013-01-27 07:13:00,
2013-01-27 01:18:00,26.6,15.3,30.31,ENE,68,0.0,1.1,62,0.00,,,0.00,WUHU216HW,2013-01-27 07:18:00,
2013-01-27 01:23:00,26.6,15.3,30.31,ESE,113,0.4,1.1,62,0.00,,,0.00,WUHU216HW,2013-01-27 07:23:00,
2013-01-27 01:28:00,26.5,15.1,30.31,East,90,0.4,1.1,62,0.00,,,0.00,WUHU216HW,2013-01-27 07:28:00,
2013-01-27 01:33:00,26.5,15.5,30.30,West,270,0.2,1.1,63,0.00,,,0.00,WUHU216HW,2013-01-27 07:33:00,
2013-01-27 01:38:00,26.5,15.5,30.30,ENE,68,1.8,1.8,63,0.00,,,0.00,WUHU216HW,2013-01-27 07:38:00,
2013-01-27 01:43:00,26.5,15.5,30.30,NE,45,0.0,1.8,63,0.00,,,0.00,WUHU216HW,2013-01-27 07:43:00,
2013-01-27 01:48:00,26.5,15.5,30.30,ENE,68,0.7,1.8,63,0.00,,,0.00,WUHU216HW,2013-01-27 07:48:00,
2013-01-27 01:53:00,26.5,15.5,30.30,West,270,0.0,1.3,63,0.00,,,0.00,WUHU216HW,2013-01-27 07:53:00,
2013-01-27 01:58:00,26.5,15.5,30.30,ENE,68,0.2,1.3,63,0.00,,,0.00,WUHU216HW,2013-01-27 07:58:00,
2013-01-27 02:03:00,26.5,15.5,30.30,ENE,68,0.0,1.1,63,0.00,,,0.00,WUHU216HW,2013-01-27 08:03:00,
2013-01-27 02:08:00,26.5,15.5,30.30,East,90,1.6,3.1,63,0.00,,,0.00,WUHU216HW,2013-01-27 08:08:00,
2013-01-27 02:13:00,26.5,15.5,30.30,NE,45,1.1,3.1,63,0.00,,,0.00,WUHU216HW,2013-01-27 08:13:00,
2013-01-27 02:18:00,26.5,15.5,30.30,SE,135,0.2,1.8,63,0.00,,,0.00,WUHU216HW,2013-01-27 08:18:00,
2013-01-27 02:23:00,26.5,15.8,30.30,East,90,1.1,1.8,64,0.00,,,0.00,WUHU216HW,2013-01-27 08:23:00,
2013-01-27 02:28:00,26.5,15.8,30.30,ENE,68,1.1,1.8,64,0.00,,,0.00,WUHU216HW,2013-01-27 08:28:00,
2013-01-27 02:33:00,26.5,15.8,30.29,East,90,0.9,1.8,64,0.00,,,0.00,WUHU216HW,2013-01-27 08:33:00,
2013-01-27 02:38:00,26.5,15.8,30.29,SSE,158,0.0,2.0,64,0.00,,,0.00,WUHU216HW,2013-01-27 08:38:00,
2013-01-27 02:43:00,26.6,16.0,30.29,ENE,68,1.1,2.0,64,0.00,,,0.00,WUHU216HW,2013-01-27 08:43:00,
2013-01-27 02:48:00,26.6,16.0,30.29,North,0,0.4,2.0,64,0.00,,,0.00,WUHU216HW,2013-01-27 08:48:00,
2013-01-27 02:53:00,26.6,16.0,30.29,SW,225,0.9,2.0,64,0.00,,,0.00,WUHU216HW,2013-01-27 08:53:00,
2013-01-27 02:58:00,26.8,16.2,30.29,NE,45,0.4,2.5,64,0.00,,,0.00,WUHU216HW,2013-01-27 08:58:00,
2013-01-27 03:03:00,26.8,16.2,30.28,ENE,68,1.1,4.0,64,0.00,,,0.00,WUHU216HW,2013-01-27 09:03:00,
2013-01-27 03:08:00,26.8,16.2,30.28,ENE,68,0.2,4.0,64,0.00,,,0.00,WUHU216HW,2013-01-27 09:08:00,
2013-01-27 03:13:00,26.8,16.2,30.28,SE,135,0.4,1.6,64,0.00,,,0.00,WUHU216HW,2013-01-27 09:13:00,
2013-01-27 03:18:00,26.8,16.2,30.28,East,90,0.0,2.9,64,0.00,,,0.00,WUHU216HW,2013-01-27 09:18:00,
2013-01-27 03:23:00,26.8,16.2,30.27,ESE,113,0.2,2.9,64,0.00,,,0.00,WUHU216HW,2013-01-27 09:23:00,
2013-01-27 03:28:00,26.8,16.2,30.27,ENE,68,0.4,2.9,64,0.00,,,0.00,WUHU216HW,2013-01-27 09:28:00,
2013-01-27 03:33:00,26.8,16.2,30.27,East,90,0.4,2.9,64,0.00,,,0.00,WUHU216HW,2013-01-27 09:33:00,
2013-01-27 03:38:00,26.8,16.2,30.26,NE,45,0.0,1.6,64,0.00,,,0.00,WUHU216HW,2013-01-27 09:38:00,
2013-01-27 03:43:00,26.8,16.2,30.26,NE,45,1.6,1.6,64,0.00,,,0.00,WUHU216HW,2013-01-27 09:43:00,
2013-01-27 03:48:00,26.6,16.0,30.26,SE,135,0.4,1.8,64,0.00,,,0.00,WUHU216HW,2013-01-27 09:48:00,
2013-01-27 03:53:00,26.6,16.0,30.26,East,90,0.2,1.8,64,0.00,,,0.00,WUHU216HW,2013-01-27 09:53:00,
2013-01-27 03:58:00,26.5,15.8,30.25,East,90,0.2,1.1,64,0.00,,,0.00,WUHU216HW,2013-01-27 09:58:00,
2013-01-27 04:03:00,26.5,15.8,30.25,NE,45,0.9,0.9,64,0.00,,,0.00,WUHU216HW,2013-01-27 10:03:00,
2013-01-27 04:08:00,26.5,15.8,30.25,East,90,0.0,1.1,64,0.00,,,0.00,WUHU216HW,2013-01-27 10:08:00,
2013-01-27 04:13:00,26.5,16.2,30.25,ENE,68,0.4,1.1,65,0.00,,,0.00,WUHU216HW,2013-01-27 10:13:00,
2013-01-27 04:18:00,26.3,16.0,30.25,NE,45,0.0,2.0,65,0.00,,,0.00,WUHU216HW,2013-01-27 10:18:00,
2013-01-27 04:23:00,26.3,16.0,30.24,NE,45,0.2,2.0,65,0.00,,,0.00,WUHU216HW,2013-01-27 10:23:00,
2013-01-27 04:28:00,26.3,16.0,30.24,NE,45,0.2,0.9,65,0.00,,,0.00,WUHU216HW,2013-01-27 10:28:00,
2013-01-27 04:33:00,26.3,16.0,30.24,NE,45,0.4,0.4,65,0.00,,,0.00,WUHU216HW,2013-01-27 10:33:00,
2013-01-27 04:38:00,26.3,16.0,30.24,NE,45,0.0,0.4,65,0.00,,,0.00,WUHU216HW,2013-01-27 10:38:00,
2013-01-27 04:43:00,26.3,16.0,30.24,NE,45,0.4,0.7,65,0.00,,,0.00,WUHU216HW,2013-01-27 10:43:00,
2013-01-27 04:48:00,26.3,16.0,30.24,ESE,113,0.4,1.1,65,0.00,,,0.00,WUHU216HW,2013-01-27 10:48:00,
2013-01-27 04:53:00,26.3,16.0,30.24,SE,135,0.4,1.6,65,0.00,,,0.00,WUHU216HW,2013-01-27 10:53:00,
2013-01-27 04:58:00,26.3,16.4,30.23,East,90,0.7,1.8,66,0.00,,,0.00,WUHU216HW,2013-01-27 10:58:00,
2013-01-27 05:03:00,26.5,16.6,30.24,NE,45,0.7,1.8,66,0.00,,,0.00,WUHU216HW,2013-01-27 11:03:00,
2013-01-27 05:08:00,26.6,16.7,30.24,East,90,0.9,1.1,66,0.00,,,0.00,WUHU216HW,2013-01-27 11:08:00,
2013-01-27 05:13:00,26.8,16.9,30.23,North,0,0.4,1.1,66,0.00,,,0.00,WUHU216HW,2013-01-27 11:13:00,
2013-01-27 05:18:00,27.0,17.1,30.23,ENE,68,0.4,1.8,66,0.00,,,0.00,WUHU216HW,2013-01-27 11:18:00,
2013-01-27 05:23:00,27.0,17.1,30.23,ESE,113,1.8,1.8,66,0.00,,,0.00,WUHU216HW,2013-01-27 11:23:00,
2013-01-27 05:28:00,27.0,17.1,30.23,NE,45,1.8,2.0,66,0.00,,,0.00,WUHU216HW,2013-01-27 11:28:00,
2013-01-27 05:33:00,27.0,17.1,30.23,ESE,113,0.0,2.0,66,0.00,,,0.00,WUHU216HW,2013-01-27 11:33:00,
2013-01-27 05:38:00,27.0,17.1,30.23,NE,45,0.9,2.5,66,0.00,,,0.00,WUHU216HW,2013-01-27 11:38:00,
2013-01-27 05:43:00,27.0,17.1,30.23,NE,45,1.6,2.5,66,0.00,,,0.00,WUHU216HW,2013-01-27 11:43:00,
2013-01-27 05:48:00,27.0,17.1,30.23,ENE,68,0.2,1.8,66,0.00,,,0.00,WUHU216HW,2013-01-27 11:48:00,
2013-01-27 05:53:00,27.2,17.3,30.23,SSE,158,2.0,2.0,66,0.00,,,0.00,WUHU216HW,2013-01-27 11:53:00,
2013-01-27 05:58:00,27.4,17.5,30.23,NNE,23,0.9,2.0,66,0.00,,,0.00,WUHU216HW,2013-01-27 11:58:00,
2013-01-27 06:03:00,27.4,17.5,30.23,East,90,0.9,2.0,66,0.00,,,0.00,WUHU216HW,2013-01-27 12:03:00,
2013-01-27 06:08:00,27.4,17.5,30.23,ESE,113,0.0,1.8,66,0.00,,,0.00,WUHU216HW,2013-01-27 12:08:00,
2013-01-27 06:13:00,27.5,17.6,30.23,NNE,23,0.0,1.1,66,0.00,,,0.00,WUHU216HW,2013-01-27 12:13:00,
2013-01-27 06:18:00,27.7,17.8,30.22,NE,45,0.7,1.8,66,0.00,,,0.00,WUHU216HW,2013-01-27 12:18:00,
2013-01-27 06:23:00,27.7,17.8,30.23,East,90,0.0,2.5,66,0.00,,,0.00,WUHU216HW,2013-01-27 12:23:00,
2013-01-27 06:28:00,27.7,17.8,30.22,North,0,0.0,2.5,66,0.00,,,0.00,WUHU216HW,2013-01-27 12:28:00,
2013-01-27 06:33:00,27.9,18.0,30.22,South,180,2.7,2.7,66,0.00,,,0.00,WUHU216HW,2013-01-27 12:33:00,
2013-01-27 06:38:00,28.3,18.4,30.22,North,0,0.2,2.7,66,0.00,,,0.00,WUHU216HW,2013-01-27 12:38:00,
2013-01-27 06:43:00,28.4,18.5,30.22,NE,45,1.3,2.9,66,0.00,,,0.00,WUHU216HW,2013-01-27 12:43:00,
2013-01-27 06:48:00,28.8,18.9,30.22,SSW,203,3.4,4.0,66,0.00,,,0.00,WUHU216HW,2013-01-27 12:48:00,
2013-01-27 06:53:00,29.2,19.2,30.22,ENE,68,1.3,4.0,66,0.00,,,0.00,WUHU216HW,2013-01-27 12:53:00,
2013-01-27 06:58:00,29.3,19.4,30.23,ENE,68,0.4,3.4,66,0.00,,,0.00,WUHU216HW,2013-01-27 12:58:00,
2013-01-27 07:03:00,29.5,19.5,30.22,SE,135,1.1,3.1,66,0.00,,,0.00,WUHU216HW,2013-01-27 13:03:00,
2013-01-27 07:08:00,29.7,19.7,30.22,NE,45,1.8,3.1,66,0.00,,,0.00,WUHU216HW,2013-01-27 13:08:00,
2013-01-27 07:13:00,29.9,19.8,30.22,ENE,68,1.1,3.4,66,0.00,,,0.00,WUHU216HW,2013-01-27 13:13:00,
2013-01-27 07:18:00,29.9,19.8,30.22,NW,315,0.4,3.4,66,0.00,,,0.00,WUHU216HW,2013-01-27 13:18:00,
2013-01-27 07:23:00,30.2,20.2,30.22,NE,45,0.9,3.6,66,0.00,,,0.00,WUHU216HW,2013-01-27 13:23:00,
2013-01-27 07:28:00,30.2,20.2,30.22,ENE,68,0.4,3.6,66,0.00,,,0.00,WUHU216HW,2013-01-27 13:28:00,
2013-01-27 07:33:00,30.2,20.2,30.21,NNE,23,0.7,2.5,66,0.00,,,0.00,WUHU216HW,2013-01-27 13:33:00,
2013-01-27 07:38:00,30.2,20.2,30.21,East,90,1.3,2.5,66,0.00,,,0.00,WUHU216HW,2013-01-27 13:38:00,
2013-01-27 07:43:00,30.4,20.3,30.21,ENE,68,2.5,2.5,66,0.00,,,0.00,WUHU216HW,2013-01-27 13:43:00,
2013-01-27 07:48:00,30.4,20.3,30.21,ENE,68,1.1,2.5,66,0.00,,,0.00,WUHU216HW,2013-01-27 13:48:00,
2013-01-27 07:53:00,30.6,20.5,30.21,East,90,1.6,4.0,66,0.00,,,0.00,WUHU216HW,2013-01-27 13:53:00,
2013-01-27 07:58:00,30.6,20.5,30.21,NNE,23,1.3,4.0,66,0.00,,,0.00,WUHU216HW,2013-01-27 13:58:00,
2013-01-27 08:03:00,30.6,20.5,30.21,South,180,2.7,2.7,66,0.00,,,0.00,WUHU216HW,2013-01-27 14:03:00,
2013-01-27 08:08:00,31.0,20.9,30.21,North,0,0.0,3.6,66,0.00,,,0.00,WUHU216HW,2013-01-27 14:08:00,
2013-01-27 08:13:00,31.0,20.9,30.21,North,0,0.4,3.6,66,0.00,,,0.00,WUHU216HW,2013-01-27 14:13:00,
2013-01-27 08:18:00,31.1,20.7,30.21,North,0,0.4,1.6,65,0.00,,,0.00,WUHU216HW,2013-01-27 14:18:00,
2013-01-27 08:23:00,31.3,20.9,30.20,NNE,23,0.7,2.7,65,0.00,,,0.00,WUHU216HW,2013-01-27 14:23:00,
2013-01-27 08:28:00,31.3,20.9,30.20,NW,315,1.1,4.0,65,0.00,,,0.00,WUHU216HW,2013-01-27 14:28:00,
2013-01-27 08:33:00,31.5,21.1,30.20,SSE,158,1.1,4.0,65,0.00,,,0.00,WUHU216HW,2013-01-27 14:33:00,
2013-01-27 08:38:00,31.5,21.1,30.20,ENE,68,0.9,4.3,65,0.00,,,0.00,WUHU216HW,2013-01-27 14:38:00,
2013-01-27 08:43:00,31.7,21.2,30.20,ENE,68,0.4,4.3,65,0.00,,,0.00,WUHU216HW,2013-01-27 14:43:00,
2013-01-27 08:48:00,31.7,21.2,30.20,East,90,1.3,2.5,65,0.00,,,0.00,WUHU216HW,2013-01-27 14:48:00,
2013-01-27 08:53:00,31.9,21.4,30.20,ESE,113,1.6,2.5,65,0.00,,,0.00,WUHU216HW,2013-01-27 14:53:00,
2013-01-27 08:58:00,31.9,21.4,30.20,ENE,68,0.7,1.8,65,0.00,,,0.00,WUHU216HW,2013-01-27 14:58:00,
2013-01-27 09:03:00,31.9,21.4,30.20,NE,45,0.4,1.8,65,0.00,,,0.00,WUHU216HW,2013-01-27 15:03:00,
2013-01-27 09:08:00,32.0,21.6,30.20,SE,135,1.1,1.6,65,0.00,,,0.00,WUHU216HW,2013-01-27 15:08:00,
2013-01-27 09:13:00,32.0,21.6,30.19,SSE,158,0.9,2.0,65,0.00,,,0.00,WUHU216HW,2013-01-27 15:13:00,
2013-01-27 09:18:00,32.0,21.6,30.19,East,90,0.0,2.0,65,0.00,,,0.00,WUHU216HW,2013-01-27 15:18:00,
2013-01-27 09:23:00,32.0,21.6,30.19,ENE,68,0.4,1.8,65,0.00,,,0.00,WUHU216HW,2013-01-27 15:23:00,
2013-01-27 09:28:00,32.2,21.8,30.19,East,90,1.8,1.8,65,0.00,,,0.00,WUHU216HW,2013-01-27 15:28:00,
2013-01-27 09:33:00,32.4,22.0,30.19,North,0,0.4,1.8,65,0.00,,,0.00,WUHU216HW,2013-01-27 15:33:00,
2013-01-27 09:38:00,32.4,22.0,30.19,ESE,113,0.4,2.5,65,0.00,,,0.00,WUHU216HW,2013-01-27 15:38:00,
2013-01-27 09:43:00,32.4,21.6,30.19,East,90,0.2,2.9,64,0.00,,,0.00,WUHU216HW,2013-01-27 15:43:00,
2013-01-27 09:48:00,32.6,21.7,30.19,East,90,1.1,4.3,64,0.00,,,0.00,WUHU216HW,2013-01-27 15:48:00,
2013-01-27 09:53:00,32.4,22.0,30.19,SSE,158,2.2,4.3,65,0.00,,,0.00,WUHU216HW,2013-01-27 15:53:00,
2013-01-27 09:58:00,32.6,22.1,30.19,SSE,158,0.4,5.4,65,0.00,,,0.00,WUHU216HW,2013-01-27 15:58:00,
2013-01-27 10:03:00,32.6,22.1,30.18,ESE,113,0.7,5.4,65,0.00,,,0.00,WUHU216HW,2013-01-27 16:03:00,
2013-01-27 10:08:00,32.6,22.1,30.18,East,90,0.4,3.6,65,0.00,,,0.00,WUHU216HW,2013-01-27 16:08:00,
2013-01-27 10:13:00,32.8,22.2,30.19,NE,45,0.4,3.4,65,0.00,,,0.00,WUHU216HW,2013-01-27 16:13:00,
2013-01-27 10:18:00,32.8,22.2,30.19,East,90,2.0,3.4,65,0.00,,,0.00,WUHU216HW,2013-01-27 16:18:00,
2013-01-27 10:23:00,32.8,22.2,30.19,SSW,203,0.9,3.4,65,0.00,,,0.00,WUHU216HW,2013-01-27 16:23:00,
2013-01-27 10:28:00,32.8,22.2,30.19,SW,225,1.1,3.4,65,0.00,,,0.00,WUHU216HW,2013-01-27 16:28:00,
2013-01-27 10:33:00,32.9,22.4,30.19,SE,135,3.1,4.0,65,0.00,,,0.00,WUHU216HW,2013-01-27 16:33:00,
2013-01-27 10:38:00,32.9,22.4,30.19,East,90,1.1,4.5,65,0.00,,,0.00,WUHU216HW,2013-01-27 16:38:00,
2013-01-27 10:43:00,33.1,22.6,30.19,SSE,158,1.8,4.5,65,0.00,,,0.00,WUHU216HW,2013-01-27 16:43:00,
2013-01-27 10:48:00,33.1,23.0,30.19,ENE,68,1.8,3.4,66,0.00,,,0.00,WUHU216HW,2013-01-27 16:48:00,
2013-01-27 10:53:00,33.1,23.3,30.19,SE,135,0.4,3.1,67,0.00,,,0.00,WUHU216HW,2013-01-27 16:53:00,
2013-01-27 10:58:00,33.1,23.3,30.19,NE,45,0.0,3.1,67,0.00,,,0.00,WUHU216HW,2013-01-27 16:58:00,
2013-01-27 11:03:00,33.1,23.7,30.19,SSW,203,1.8,5.6,68,0.00,,,0.00,WUHU216HW,2013-01-27 17:03:00,
2013-01-27 11:08:00,33.1,24.0,30.19,SE,135,2.0,5.6,69,0.00,,,0.00,WUHU216HW,2013-01-27 17:08:00,
2013-01-27 11:13:00,32.9,23.9,30.19,North,0,0.0,4.3,69,0.01,,,0.00,WUHU216HW,2013-01-27 17:13:00,
2013-01-27 11:18:00,33.1,24.4,30.19,ESE,113,4.9,4.9,70,0.02,,,0.02,WUHU216HW,2013-01-27 17:18:00,
2013-01-27 11:23:00,32.9,24.6,30.19,NNE,23,0.7,4.9,71,0.03,,,0.02,WUHU216HW,2013-01-27 17:23:00,
2013-01-27 11:28:00,33.1,25.0,30.18,ESE,113,3.4,4.9,72,0.04,,,0.04,WUHU216HW,2013-01-27 17:28:00,
2013-01-27 11:33:00,33.1,25.4,30.17,NNE,23,0.4,3.4,73,0.05,,,0.05,WUHU216HW,2013-01-27 17:33:00,
2013-01-27 11:38:00,33.1,25.4,30.17,ESE,113,1.1,4.0,73,0.06,,,0.06,WUHU216HW,2013-01-27 17:38:00,
2013-01-27 11:43:00,33.1,25.7,30.17,East,90,0.7,4.0,74,0.07,,,0.07,WUHU216HW,2013-01-27 17:43:00,
2013-01-27 11:48:00,33.3,26.2,30.17,SE,135,1.1,3.1,75,0.09,,,0.08,WUHU216HW,2013-01-27 17:48:00,
2013-01-27 11:53:00,33.3,26.2,30.16,ENE,68,0.4,3.1,75,0.10,,,0.10,WUHU216HW,2013-01-27 17:53:00,
2013-01-27 11:58:00,33.3,26.5,30.16,SSE,158,1.1,3.1,76,0.10,,,0.10,WUHU216HW,2013-01-27 17:58:00,
2013-01-27 12:03:00,33.5,26.6,30.15,East,90,1.1,3.1,76,0.11,,,0.11,WUHU216HW,2013-01-27 18:03:00,
2013-01-27 12:08:00,33.5,26.6,30.16,ESE,113,0.9,2.5,76,0.12,,,0.12,WUHU216HW,2013-01-27 18:08:00,
2013-01-27 12:13:00,33.5,27.0,30.15,East,90,0.9,2.5,77,0.12,,,0.13,WUHU216HW,2013-01-27 18:13:00,
2013-01-27 12:18:00,33.3,26.8,30.15,ESE,113,1.6,2.5,77,0.12,,,0.14,WUHU216HW,2013-01-27 18:18:00,
2013-01-27 12:23:00,33.5,27.0,30.15,East,90,1.1,3.4,77,0.11,,,0.14,WUHU216HW,2013-01-27 18:23:00,
2013-01-27 12:28:00,33.3,27.1,30.14,NE,45,1.3,4.0,78,0.11,,,0.15,WUHU216HW,2013-01-27 18:28:00,
2013-01-27 12:33:00,33.3,27.1,30.14,NE,45,1.1,4.0,78,0.10,,,0.16,WUHU216HW,2013-01-27 18:33:00,
2013-01-27 12:38:00,33.3,27.1,30.14,SE,135,2.0,3.6,78,0.10,,,0.16,WUHU216HW,2013-01-27 18:38:00,
2013-01-27 12:43:00,33.3,27.5,30.13,ENE,68,0.9,3.4,79,0.09,,,0.17,WUHU216HW,2013-01-27 18:43:00,
2013-01-27 12:48:00,33.5,27.6,30.13,NE,45,0.9,2.0,79,0.09,,,0.18,WUHU216HW,2013-01-27 18:48:00,
2013-01-27 12:53:00,33.5,27.9,30.12,East,90,2.2,2.2,80,0.09,,,0.18,WUHU216HW,2013-01-27 18:53:00,
2013-01-27 12:58:00,33.5,27.9,30.13,SSE,158,2.7,2.7,80,0.08,,,0.19,WUHU216HW,2013-01-27 18:58:00,
2013-01-27 13:03:00,33.5,27.9,30.13,ENE,68,2.9,2.9,80,0.08,,,0.19,WUHU216HW,2013-01-27 19:03:00,
2013-01-27 13:08:00,33.5,27.9,30.12,East,90,0.7,3.4,80,0.08,,,0.20,WUHU216HW,2013-01-27 19:08:00,
2013-01-27 13:13:00,33.5,27.9,30.12,East,90,1.6,3.4,80,0.06,,,0.20,WUHU216HW,2013-01-27 19:13:00,
2013-01-27 13:18:00,33.5,27.9,30.11,East,90,2.7,3.4,80,0.06,,,0.20,WUHU216HW,2013-01-27 19:18:00,
2013-01-27 13:23:00,33.5,27.9,30.11,ESE,113,1.1,3.4,80,0.06,,,0.20,WUHU216HW,2013-01-27 19:23:00,
2013-01-27 13:28:00,33.5,27.9,30.11,SE,135,0.7,2.9,80,0.05,,,0.20,WUHU216HW,2013-01-27 19:28:00,
2013-01-27 13:33:00,33.5,28.3,30.11,SE,135,1.3,2.0,81,0.04,,,0.20,WUHU216HW,2013-01-27 19:33:00,
2013-01-27 13:38:00,33.5,28.3,30.11,SE,135,1.1,1.6,81,0.03,,,0.20,WUHU216HW,2013-01-27 19:38:00,
2013-01-27 13:43:00,33.5,28.3,30.10,SE,135,0.4,1.6,81,0.03,,,0.20,WUHU216HW,2013-01-27 19:43:00,
2013-01-27 13:48:00,33.5,28.3,30.10,SE,135,0.4,1.8,81,0.02,,,0.20,WUHU216HW,2013-01-27 19:48:00,
2013-01-27 13:53:00,33.5,28.5,30.10,SE,135,0.9,1.8,82,0.01,,,0.20,WUHU216HW,2013-01-27 19:53:00,
2013-01-27 13:58:00,33.5,28.5,30.10,SE,135,1.3,1.8,82,0.01,,,0.20,WUHU216HW,2013-01-27 19:58:00,
2013-01-27 14:03:00,33.5,28.3,30.10,SE,135,0.0,1.8,81,0.00,,,0.20,WUHU216HW,2013-01-27 20:03:00,
2013-01-27 14:08:00,33.5,28.3,30.09,SE,135,0.0,1.3,81,0.00,,,0.20,WUHU216HW,2013-01-27 20:08:00,
2013-01-27 14:13:00,33.7,28.4,30.09,SE,135,0.0,0.0,81,0.00,,,0.20,WUHU216HW,2013-01-27 20:13:00,
2013-01-27 14:18:00,33.7,28.4,30.09,SE,135,0.0,0.0,81,0.00,,,0.20,WUHU216HW,2013-01-27 20:18:00,
2013-01-27 14:23:00,33.5,28.5,30.08,SE,135,0.0,0.0,82,0.00,,,0.20,WUHU216HW,2013-01-27 20:23:00,
2013-01-27 14:28:00,33.5,28.5,30.07,SE,135,0.0,0.0,82,0.00,,,0.20,WUHU216HW,2013-01-27 20:28:00,
2013-01-27 14:33:00,33.7,28.7,30.07,SE,135,0.0,0.0,82,0.00,,,0.20,WUHU216HW,2013-01-27 20:33:00,
2013-01-27 14:38:00,33.7,28.7,30.07,SE,135,0.0,0.0,82,0.00,,,0.20,WUHU216HW,2013-01-27 20:38:00,
2013-01-27 14:43:00,33.8,28.8,30.07,SE,135,0.0,0.0,82,0.00,,,0.20,WUHU216HW,2013-01-27 20:43:00,
2013-01-27 14:48:00,33.8,29.2,30.07,SE,135,0.0,0.0,83,0.00,,,0.20,WUHU216HW,2013-01-27 20:48:00,
2013-01-27 14:53:00,33.8,29.2,30.07,SE,135,0.0,0.0,83,0.00,,,0.20,WUHU216HW,2013-01-27 20:53:00,
2013-01-27 14:58:00,34.0,29.6,30.07,SE,135,0.0,0.0,84,0.00,,,0.20,WUHU216HW,2013-01-27 20:58:00,
2013-01-27 15:03:00,33.8,29.2,30.07,SE,135,0.0,0.0,83,0.00,,,0.20,WUHU216HW,2013-01-27 21:03:00,
2013-01-27 15:08:00,34.0,29.6,30.07,SE,135,0.0,0.0,84,0.00,,,0.20,WUHU216HW,2013-01-27 21:08:00,
2013-01-27 15:13:00,34.0,29.6,30.07,SE,135,0.0,0.0,84,0.01,,,0.21,WUHU216HW,2013-01-27 21:13:00,
2013-01-27 15:18:00,34.0,29.6,30.07,SE,135,0.0,0.0,84,0.01,,,0.21,WUHU216HW,2013-01-27 21:18:00,
2013-01-27 15:23:00,34.2,29.8,30.07,SE,135,0.0,0.0,84,0.01,,,0.21,WUHU216HW,2013-01-27 21:23:00,
2013-01-27 15:28:00,34.0,29.6,30.07,SE,135,0.0,0.0,84,0.01,,,0.21,WUHU216HW,2013-01-27 21:28:00,
2013-01-27 15:33:00,34.2,29.8,30.07,SE,135,0.0,0.0,84,0.01,,,0.21,WUHU216HW,2013-01-27 21:33:00,
2013-01-27 15:38:00,34.0,29.6,30.07,SE,135,0.0,0.0,84,0.01,,,0.21,WUHU216HW,2013-01-27 21:38:00,
2013-01-27 15:43:00,34.2,29.8,30.07,SE,135,0.0,0.0,84,0.01,,,0.21,WUHU216HW,2013-01-27 21:43:00,
2013-01-27 15:48:00,34.2,29.8,30.07,SE,135,0.0,0.0,84,0.01,,,0.21,WUHU216HW,2013-01-27 21:48:00,
2013-01-27 15:53:00,34.2,29.8,30.07,SE,135,0.0,0.0,84,0.01,,,0.21,WUHU216HW,2013-01-27 21:53:00,
2013-01-27 15:58:00,34.2,29.8,30.07,SE,135,0.0,0.0,84,0.01,,,0.21,WUHU216HW,2013-01-27 21:58:00,
2013-01-27 16:03:00,34.2,29.8,30.07,SE,135,0.0,0.0,84,0.01,,,0.21,WUHU216HW,2013-01-27 22:03:00,
2013-01-27 16:08:00,34.2,29.8,30.07,SE,135,0.0,0.0,84,0.01,,,0.21,WUHU216HW,2013-01-27 22:08:00,
2013-01-27 16:13:00,34.0,29.6,30.07,SE,135,0.0,0.0,84,0.00,,,0.21,WUHU216HW,2013-01-27 22:13:00,
2013-01-27 16:18:00,34.0,29.6,30.07,SE,135,0.0,0.0,84,0.00,,,0.21,WUHU216HW,2013-01-27 22:18:00,
2013-01-27 16:23:00,34.0,29.6,30.07,SE,135,0.0,0.0,84,0.00,,,0.21,WUHU216HW,2013-01-27 22:23:00,
2013-01-27 16:28:00,34.0,29.6,30.07,SE,135,0.0,0.0,84,0.00,,,0.21,WUHU216HW,2013-01-27 22:28:00,
2013-01-27 16:33:00,34.0,29.6,30.06,SE,135,0.0,0.0,84,0.00,,,0.21,WUHU216HW,2013-01-27 22:33:00,
2013-01-27 16:38:00,34.0,29.6,30.07,SE,135,0.0,0.0,84,0.00,,,0.21,WUHU216HW,2013-01-27 22:38:00,
2013-01-27 16:43:00,34.2,29.8,30.06,SE,135,0.0,0.0,84,0.00,,,0.21,WUHU216HW,2013-01-27 22:43:00,
2013-01-27 16:48:00,34.0,29.6,30.06,SE,135,0.0,0.0,84,0.00,,,0.21,WUHU216HW,2013-01-27 22:48:00,
2013-01-27 16:53:00,34.0,29.6,30.06,SE,135,0.0,0.0,84,0.00,,,0.21,WUHU216HW,2013-01-27 22:53:00,
2013-01-27 16:58:00,33.8,29.2,30.06,SE,135,0.0,0.0,83,0.00,,,0.21,WUHU216HW,2013-01-27 22:58:00,
2013-01-27 17:03:00,33.8,29.4,30.06,SE,135,0.0,0.0,84,0.00,,,0.21,WUHU216HW,2013-01-27 23:03:00,
2013-01-27 17:08:00,33.8,29.4,30.06,SE,135,0.0,0.0,84,0.00,,,0.21,WUHU216HW,2013-01-27 23:08:00,
2013-01-27 17:13:00,33.8,29.4,30.06,SE,135,0.0,0.0,84,0.00,,,0.21,WUHU216HW,2013-01-27 23:13:00,
2013-01-27 17:18:00,33.8,29.4,30.06,SE,135,0.0,0.0,84,0.00,,,0.21,WUHU216HW,2013-01-27 23:18:00,
2013-01-27 17:23:00,33.8,29.4,30.06,SE,135,0.0,0.0,84,0.00,,,0.21,WUHU216HW,2013-01-27 23:23:00,
2013-01-27 17:28:00,33.8,29.4,30.05,SE,135,0.0,0.0,84,0.00,,,0.21,WUHU216HW,2013-01-27 23:28:00,
2013-01-27 17:33:00,33.8,29.4,30.06,SE,135,0.0,0.0,84,0.00,,,0.21,WUHU216HW,2013-01-27 23:33:00,
2013-01-27 17:38:00,33.7,29.3,30.06,SE,135,0.0,0.0,84,0.00,,,0.21,WUHU216HW,2013-01-27 23:38:00,
2013-01-27 17:43:00,33.8,29.4,30.06,SE,135,0.0,0.0,84,0.00,,,0.21,WUHU216HW,2013-01-27 23:43:00,
2013-01-27 17:48:00,33.8,29.4,30.06,ENE,68,0.4,3.4,84,0.16,,,0.37,WUHU216HW,2013-01-27 23:48:00,
2013-01-27 17:53:00,33.8,29.4,30.05,SE,135,0.7,3.4,84,0.16,,,0.37,WUHU216HW,2013-01-27 23:53:00,
2013-01-27 17:58:00,33.8,29.4,30.05,ENE,68,0.0,1.6,84,0.16,,,0.37,WUHU216HW,2013-01-27 23:58:00,
2013-01-27 18:03:00,33.8,29.7,30.06,ENE,68,0.0,1.1,85,0.16,,,0.37,WUHU216HW,2013-01-28 00:03:00,
2013-01-27 18:08:00,33.8,29.7,30.06,East,90,0.9,1.1,85,0.16,,,0.37,WUHU216HW,2013-01-28 00:08:00,
2013-01-27 18:13:00,33.8,29.7,30.06,East,90,0.9,1.6,85,0.16,,,0.37,WUHU216HW,2013-01-28 00:13:00,
2013-01-27 18:18:00,33.8,29.7,30.06,East,90,0.7,1.6,85,0.16,,,0.37,WUHU216HW,2013-01-28 00:18:00,
2013-01-27 18:23:00,33.8,29.7,30.06,East,90,0.0,1.6,85,0.16,,,0.37,WUHU216HW,2013-01-28 00:23:00,
2013-01-27 18:28:00,33.8,29.7,30.06,East,90,0.0,1.1,85,0.16,,,0.37,WUHU216HW,2013-01-28 00:28:00,
2013-01-27 18:33:00,33.7,29.5,30.06,East,90,0.4,1.1,85,0.16,,,0.37,WUHU216HW,2013-01-28 00:33:00,
2013-01-27 18:38:00,33.7,29.5,30.06,East,90,1.1,1.1,85,0.16,,,0.37,WUHU216HW,2013-01-28 00:38:00,
2013-01-27 18:43:00,33.7,29.5,30.06,East,90,0.0,1.1,85,0.16,,,0.37,WUHU216HW,2013-01-28 00:43:00,
2013-01-27 18:48:00,33.7,29.5,30.06,East,90,0.0,1.1,85,0.00,,,0.37,WUHU216HW,2013-01-28 00:48:00,
2013-01-27 18:53:00,33.5,29.3,30.06,East,90,0.0,0.4,85,0.00,,,0.37,WUHU216HW,2013-01-28 00:53:00,
2013-01-27 18:58:00,33.7,29.5,30.06,East,90,0.0,0.4,85,0.00,,,0.37,WUHU216HW,2013-01-28 00:58:00,
2013-01-27 19:03:00,33.7,29.5,30.06,East,90,0.4,0.9,85,0.00,,,0.37,WUHU216HW,2013-01-28 01:03:00,
2013-01-27 19:08:00,33.5,29.3,30.06,East,90,0.0,0.9,85,0.00,,,0.37,WUHU216HW,2013-01-28 01:08:00,
2013-01-27 19:13:00,33.5,29.7,30.06,East,90,0.0,0.9,86,0.00,,,0.37,WUHU216HW,2013-01-28 01:13:00,
2013-01-27 19:18:00,33.5,29.7,30.06,East,90,0.4,0.4,86,0.00,,,0.37,WUHU216HW,2013-01-28 01:18:00,
2013-01-27 19:23:00,33.5,29.7,30.06,East,90,0.0,0.4,86,0.00,,,0.37,WUHU216HW,2013-01-28 01:23:00,
2013-01-27 19:28:00,33.5,29.7,30.06,East,90,0.0,0.4,86,0.00,,,0.37,WUHU216HW,2013-01-28 01:28:00,
2013-01-27 19:33:00,33.5,29.7,30.06,East,90,0.0,0.4,86,0.00,,,0.37,WUHU216HW,2013-01-28 01:33:00,
2013-01-27 19:38:00,33.5,29.7,30.05,East,90,0.4,0.4,86,0.00,,,0.37,WUHU216HW,2013-01-28 01:38:00,
2013-01-27 19:43:00,33.5,29.7,30.05,East,90,0.2,1.1,86,0.00,,,0.37,WUHU216HW,2013-01-28 01:43:00,
2013-01-27 19:48:00,33.5,29.7,30.05,East,90,0.4,1.1,86,0.00,,,0.37,WUHU216HW,2013-01-28 01:48:00,
2013-01-27 19:53:00,33.5,29.7,30.05,East,90,0.2,0.7,86,0.00,,,0.37,WUHU216HW,2013-01-28 01:53:00,
2013-01-27 19:58:00,33.5,29.7,30.05,East,90,0.0,0.7,86,0.00,,,0.37,WUHU216HW,2013-01-28 01:58:00,
2013-01-27 20:03:00,33.5,29.7,30.05,East,90,0.4,0.7,86,0.00,,,0.37,WUHU216HW,2013-01-28 02:03:00,
2013-01-27 20:08:00,33.5,29.7,30.05,East,90,0.4,0.4,86,0.00,,,0.37,WUHU216HW,2013-01-28 02:08:00,
2013-01-27 20:13:00,33.5,29.7,30.04,East,90,0.4,0.4,86,0.00,,,0.37,WUHU216HW,2013-01-28 02:13:00,
2013-01-27 20:18:00,33.5,29.7,30.04,East,90,0.9,0.9,86,0.00,,,0.37,WUHU216HW,2013-01-28 02:18:00,
2013-01-27 20:23:00,33.5,29.7,30.04,East,90,0.0,0.9,86,0.00,,,0.37,WUHU216HW,2013-01-28 02:23:00,
2013-01-27 20:28:00,33.5,29.7,30.04,East,90,0.0,1.1,86,0.00,,,0.37,WUHU216HW,2013-01-28 02:28:00,
2013-01-27 20:33:00,33.5,29.7,30.04,East,90,0.7,1.1,86,0.00,,,0.37,WUHU216HW,2013-01-28 02:33:00,
2013-01-27 20:38:00,33.5,29.7,30.04,East,90,0.0,0.9,86,0.00,,,0.37,WUHU216HW,2013-01-28 02:38:00,
2013-01-27 20:43:00,33.5,29.7,30.04,East,90,0.2,0.7,86,0.00,,,0.37,WUHU216HW,2013-01-28 02:43:00,
2013-01-27 20:48:00,33.5,29.7,30.04,East,90,0.2,0.4,86,0.00,,,0.37,WUHU216HW,2013-01-28 02:48:00,
2013-01-27 20:53:00,33.5,29.7,30.04,East,90,0.0,0.4,86,0.00,,,0.37,WUHU216HW,2013-01-28 02:53:00,
2013-01-27 20:58:00,33.5,29.7,30.04,East,90,0.0,0.4,86,0.00,,,0.37,WUHU216HW,2013-01-28 02:58:00,
2013-01-27 21:03:00,33.5,29.7,30.04,East,90,0.0,0.0,86,0.00,,,0.37,WUHU216HW,2013-01-28 03:03:00,
2013-01-27 21:08:00,33.5,29.7,30.04,East,90,0.4,0.4,86,0.00,,,0.37,WUHU216HW,2013-01-28 03:08:00,
2013-01-27 21:13:00,33.5,29.7,30.04,East,90,0.0,0.7,86,0.00,,,0.37,WUHU216HW,2013-01-28 03:13:00,
2013-01-27 21:18:00,33.5,30.0,30.04,East,90,0.0,0.7,87,0.00,,,0.37,WUHU216HW,2013-01-28 03:18:00,
2013-01-27 21:23:00,33.5,30.0,30.04,East,90,0.0,0.4,87,0.00,,,0.37,WUHU216HW,2013-01-28 03:23:00,
2013-01-27 21:28:00,33.5,30.0,30.04,East,90,0.0,1.1,87,0.00,,,0.37,WUHU216HW,2013-01-28 03:28:00,
2013-01-27 21:33:00,33.5,30.0,30.04,East,90,0.4,1.1,87,0.00,,,0.37,WUHU216HW,2013-01-28 03:33:00,
2013-01-27 21:38:00,33.5,30.0,30.04,East,90,0.0,0.4,87,0.00,,,0.37,WUHU216HW,2013-01-28 03:38:00,
2013-01-27 21:43:00,33.5,30.0,30.04,East,90,0.2,0.4,87,0.00,,,0.37,WUHU216HW,2013-01-28 03:43:00,
2013-01-27 21:48:00,33.5,30.0,30.03,East,90,0.9,0.9,87,0.00,,,0.37,WUHU216HW,2013-01-28 03:48:00,
2013-01-27 21:53:00,33.5,30.0,30.03,East,90,0.2,1.3,87,0.00,,,0.37,WUHU216HW,2013-01-28 03:53:00,
2013-01-27 21:58:00,33.5,30.0,30.03,East,90,0.0,1.3,87,0.00,,,0.37,WUHU216HW,2013-01-28 03:58:00,
2013-01-27 22:03:00,33.5,30.0,30.04,East,90,0.4,1.1,87,0.00,,,0.37,WUHU216HW,2013-01-28 04:03:00,
2013-01-27 22:08:00,33.5,30.0,30.04,East,90,0.2,1.1,87,0.00,,,0.37,WUHU216HW,2013-01-28 04:08:00,
2013-01-27 22:13:00,33.5,30.0,30.04,East,90,0.0,0.4,87,0.00,,,0.37,WUHU216HW,2013-01-28 04:13:00,
2013-01-27 22:18:00,33.5,30.0,30.03,East,90,0.7,0.7,87,0.00,,,0.37,WUHU216HW,2013-01-28 04:18:00,
2013-01-27 22:23:00,33.5,30.0,30.03,East,90,0.2,0.7,87,0.00,,,0.37,WUHU216HW,2013-01-28 04:23:00,
2013-01-27 22:28:00,33.5,30.0,30.03,East,90,0.4,0.7,87,0.00,,,0.37,WUHU216HW,2013-01-28 04:28:00,
2013-01-27 22:33:00,33.5,30.0,30.03,East,90,0.4,0.7,87,0.00,,,0.37,WUHU216HW,2013-01-28 04:33:00,
2013-01-27 22:38:00,33.5,30.0,30.03,East,90,0.7,1.6,87,0.00,,,0.37,WUHU216HW,2013-01-28 04:38:00,
2013-01-27 22:43:00,33.5,30.0,30.03,East,90,0.7,1.6,87,0.00,,,0.37,WUHU216HW,2013-01-28 04:43:00,
2013-01-27 22:48:00,33.5,30.0,30.03,East,90,0.0,1.1,87,0.00,,,0.37,WUHU216HW,2013-01-28 04:48:00,
2013-01-27 22:53:00,33.5,30.0,30.03,East,90,0.0,1.1,87,0.00,,,0.37,WUHU216HW,2013-01-28 04:53:00,
2013-01-27 22:58:00,33.5,30.0,30.03,East,90,0.0,0.0,87,0.00,,,0.37,WUHU216HW,2013-01-28 04:58:00,
2013-01-27 23:00:00,33.5,30.0,30.03,East,90,0.0,0.0,87,0.00,,,0.37,WUHU216HW,2013-01-28 05:00:00,
2013-01-27 23:01:00,33.5,30.0,30.03,East,90,0.0,0.0,87,0.00,,,0.37,WUHU216HW,2013-01-28 05:01:00,
2013-01-27 23:02:00,33.5,30.0,30.03,East,90,0.0,0.0,87,0.00,,,0.37,WUHU216HW,2013-01-28 05:02:00,
2013-01-27 23:03:00,33.5,30.0,30.03,East,90,0.4,0.4,87,0.00,,,0.37,WUHU216HW,2013-01-28 05:03:00,
2013-01-27 23:08:00,33.5,30.0,30.03,East,90,0.0,0.4,87,0.00,,,0.37,WUHU216HW,2013-01-28 05:08:00,
2013-01-27 23:13:00,33.5,30.0,30.04,East,90,0.0,0.4,87,0.00,,,0.37,WUHU216HW,2013-01-28 05:13:00,
2013-01-27 23:18:00,33.5,30.0,30.04,East,90,0.0,0.0,87,0.00,,,0.37,WUHU216HW,2013-01-28 05:18:00,
2013-01-27 23:23:00,33.5,30.0,30.04,East,90,0.0,0.0,87,0.00,,,0.37,WUHU216HW,2013-01-28 05:23:00,
2013-01-27 23:28:00,33.5,30.0,30.04,East,90,0.0,0.0,87,0.00,,,0.37,WUHU216HW,2013-01-28 05:28:00,
2013-01-27 23:33:00,33.5,30.0,30.04,East,90,0.0,0.0,87,0.00,,,0.37,WUHU216HW,2013-01-28 05:33:00,
2013-01-27 23:38:00,33.5,30.2,30.04,East,90,0.0,0.0,88,0.00,,,0.37,WUHU216HW,2013-01-28 05:38:00,
2013-01-27 23:43:00,33.5,30.0,30.04,East,90,0.0,0.9,87,0.00,,,0.37,WUHU216HW,2013-01-28 05:43:00,
2013-01-27 23:48:00,33.5,30.0,30.03,East,90,0.0,0.9,87,0.00,,,0.37,WUHU216HW,2013-01-28 05:48:00,
2013-01-27 23:53:00,33.5,30.0,30.03,East,90,0.2,1.1,87,0.00,,,0.37,WUHU216HW,2013-01-28 05:53:00,
2013-01-27 23:58:00,33.3,29.8,30.03,East,90,0.0,1.1,87,0.00,,,0.37,WUHU216HW,2013-01-28 05:58:00,